STARLINK-36948, 68209

Orbit data source: Space-Track

STARLINK-36948, 68209 is a payload satellite owned by SpaceX/Seattle (US) in SSO that was launched on Tue, 17 Mar 2026 UTC via an FALCON 9 launch vehicle from the Air Force Western Test Range (AFWTR). Payload-class satellites include a variety of spacecraft equipped with specific instruments for various scientific and technological missions. These include communications satellites like Starlink; space stations such as the ISS; scientific satellites like the Hubble; Earth observation satellites from companies like Planet Labs, Umbra, and HawkEye 360; GPS; miniature CubeSats for education and research; and military/defense satellites.

Loading next visibility...
Identifier
68209, 2026-053C
Orbit
SSO
Country
Flag of USUS
Related business
Manufacturer
SpaceX/Seattle
Mission
Operational spacecraft
Bus & Motor
STARLINK V2MO, Unknown motor
Mass
575 kg wet, ~530 kg dry
Launch date (UTC)
2026-03-17 (3 months ago)
Launch vehicle
FALCON 9
Launch site
Air Force Western Test Range (AFWTR)
Object type
Payload
Rocket body
Debris
Shape & HBR
Unknown shape, 17.7 m
Radar Cross Section
Large (>1 m²)

Expand to show TLE details & history
Last TLE update: 16 hours ago

TLE from 16 hours ago
0 STARLINK-36948
1 68209U 26053C   26171.19396333  .00012838  00000-0  39922-3 0  9995
2 68209  97.2843  46.2188 0001459 127.4948 232.6427 15.33452208 15907
Epoch: 2026-06-20T04:39Z
TLE epoch observation values (Epoch: 2026-06-20T04:39:18.431Z)
Latitude
-0.00009°
Longitude
67.97992°
Altitude
469.24 km
Speed
7.631 km/s
True Right ascension
03h 04m 52s
True Declination
0° 00' 00"
Sunlit
Object was in daylight at epoch
Visualization orbit readout
Latitude
Unknown
Longitude
Unknown
Altitude
Unknown
Speed
Unknown
Apparent Right ascension
Unknown
Apparent Declination
Unknown
Sunlit
N/A
Visualization observer readout
Local Sidereal Time
07:19:11
Azimuth
Unknown
Elevation
Unknown
Doppler factor
Unknown
Orbital elements
Apogee altitude
463.462 km
Perigee altitude
461.466 km
Semi-major axis
6,840.601 km
Eccentricity
0.00015
Inclination
97.2843°
RAAN
46.2188°
Arg. of periapsis
127.4948°
True anomaly
232.62941°
Mean anomaly
232.6427°
Eccentric anomaly
232.63606°
Mean motion
3.8362 °/min
Orbital period
93.84 mins
BSTAR
0.00039922
Loading maneuver chart data...
Computing Atmospheric mass density...
Loading historical data...
Loading historical data...
Loading historical data...
Loading historical data...
Loading historical data...
Loading historical data...
Loading historical data...

Documentation

Showing up to 5 results
|